Location: Stigler
(35.2540°N, 95.1230°W)
Time: 10:09:37
(UTC-05:00)

Cosmos 1697 Rocket - Pass Details

Date: 26 September 2017
Orbit: 831 x 845 km, 71.0° (Epoch: 17 October)

Event Time Altitude Azimuth Distance (km) Brightness Sun altitude
Rises 21:59:39 0° 340° (NNW) 3,409 6.4 -34.3°
Reaches altitude 10° 22:02:07 10° 341° (NNW) 2,470 5.6 -34.7°
Enters shadow 22:04:47 29° 345° (NNW) 1,505 4.2 -35.2°
